Regional Weather Roundup
Issued by NWS Jackson, KY

Home | Current Version | Previous Version | Graphics & Text | Print | Product List | Glossary On
Versions: 1 2 3 4 5 6 7 8 9 10 11 12 13 14 15 16 17 18 19 20 21 22 23 24 25 26 27 28 29 30 31 32 33 34 35 36 37 38 39 40 41 42 43 44 45 46 47 48 49 50
000
ASUS43 KJKL 260610
RWRJKL

EAST KENTUCKY HOURLY WEATHER ROUNDUP
NATIONAL WEATHER SERVICE JACKSON KY
200 AM EDT TUE MAY 26 2015

NOTE: "FAIR" INDICATES FEW OR NO CLOUDS BELOW 12,000 FEET WITH
NO SIGNIFICANT WEATHER AND/OR OBSTRUCTIONS TO VISIBILITY.

* THESE REPORTS ARE NOT UNDER NWS QUALITY CONTROL AND MAY NOT
  REPORT WEATHER SUCH AS PRECIPITATION AND FOG.

KYZ079-080-083-085-087-088-110-112-115-119-120-260700
...EASTERN KENTUCKY...

CITY           SKY/WX    TMP DP  RH WIND       PRES   REMARKS
JACKSON        CLOUDY    70  63  78 CALM      30.19S
6HR MIN TEMP:  70; 6HR MAX TEMP:  77;

LONDON         LGT RAIN  71  61  70 S3        30.18F
6HR MIN TEMP:  71; 6HR MAX TEMP:  80; 6HR PCP: TRACE;

SOMERSET*      MOCLDY    68  64  88 CALM      30.17F
MONTICELLO*    CLOUDY    69  65  87 CALM      30.18F
6HR MIN TEMP:  68; 6HR MAX TEMP:  70;

MIDDLESBORO*   CLOUDY    71  64  78 CALM      30.20S
6HR MIN TEMP:  71; 6HR MAX TEMP:  79;

HARLAN APT*    CLOUDY    70  61  73 N3        30.21S
HAZARD APT*    LGT RAIN  66  63  88 CALM      30.19S
BLACK MTN*       N/A     63  59  88 S2          N/A
PIKEVILLE APT* MOCLDY    70  63  78 SE5       30.20R
BIG SANDY*     CLOUDY    71  65  82 CALM      30.18S
6HR MIN TEMP:  69; 6HR MAX TEMP:  80;

MOREHEAD APT*  CLOUDY    68  66  94 SW5       30.18S
$$

KYZ035-036-041-042-044-050-067-078-099-260700
...CENTRAL KENTUCKY...

CITY           SKY/WX    TMP DP  RH WIND       PRES   REMARKS
MT STERLING*   MOCLDY    68  64  88 SW5       30.18S
FLEMING/MASON* CLEAR     64  64 100 S5        30.17R
DANVILLE*      PTCLDY    64  63  94 S3        30.17S
RICHMOND*      PTCLDY    68  63  83 S5        30.16S
LEXINGTON      MOCLDY    65  63  93 S6        30.15S
6HR MIN TEMP:  64; 6HR MAX TEMP:  70; 6HR PCP: TRACE;

FRANKFORT      CLEAR     67  63  87 S5        30.12F
6HR MIN TEMP:  65; 6HR MAX TEMP:  73;

$$

KYZ091>093-OHZ055-061-077-WVZ005-015-034-035-042-260700
...SOUTHERN OHIO/WEST VIRGINIA...

CITY           SKY/WX    TMP DP  RH WIND       PRES   REMARKS
COVINGTON      MOCLDY    67  63  87 S6        30.11F
COLUMBUS       LGT RAIN  70  63  78 SE5       30.11F
DAYTON         CLOUDY    70  64  81 SW10      30.10F
WILMINGTON     CLEAR     67  62  84 S5        30.12F
HUNTINGTON     CLOUDY    68  65  90 E3        30.14S
CHARLESTON     PTCLDY    67  64  90 CALM      30.16R
PINEVILLE*     CLEAR     61  60  94 MISG      30.27R
BECKLEY        CLEAR     66  54  65 SE6       30.26S
BLUEFIELD      MOCLDY    68  55  63 VRB7      30.28S
$$

VAZ002-007-008-TNZ017-027-036-066-071-260700
...SOUTHWEST VIRGINIA/EAST TENNESSEE...

CITY           SKY/WX    TMP DP  RH WIND       PRES   REMARKS
WISE*          CLOUDY    68  55  64 SW8       30.27S
JONESVILLE*    CLOUDY    68  64  88 CALM      30.23S
ABINGDON*      MOCLDY    65  59  80 N3        30.24F
BRISTOL        CLOUDY    72  60  66 S3        30.21F
KNOXVILLE      CLOUDY    67  64  90 W8        30.19S
OAK RIDGE      CLOUDY    69  66  90 CALM      30.21S
CROSSVILLE     CLOUDY    67  63  87 S8        30.21F
NASHVILLE      MOCLDY    67  64  90 SE6       30.11F
$$

...KEY TO REMARKS...
VSB - VISIBILITY IN MILES
WCI - WIND CHILL INDEX
HX  - HEAT INDEX

$$


USA.gov is the U.S. government's official web portal to all federal, state and local government web resources and services.